EW5121 Weather Reports


Display with metric or nautical units.
time (UTC)temp
F
wind
direction
speed
MPH
gust
MPH
rain 1hr
in
rain 24hr
in
rain mn
in
humidity
%
barometer
mb
20180723133701 73 70 1.0 3.0 0.00 0.00 0.00 60 1023.0
20180723132659 72 78 2.0 4.0 0.00 0.00 0.00 61 1023.0
20180723131657 72 52 2.0 4.0 0.00 0.00 0.00 63 1023.0
20180723130656 72 52 1.0 3.0 0.00 0.00 0.00 65 1023.4
20180723125654 71 146 0.0 1.0 0.00 0.00 0.00 66 1023.4
20180723124653 70 112 1.0 2.0 0.00 0.00 0.00 67 1023.4
20180723123652 70 65 1.0 2.0 0.00 0.00 0.00 67 1023.4
20180723122650 69 68 0.0 2.0 0.00 0.00 0.00 68 1023.4
20180723121649 68 170 1.0 2.0 0.00 0.00 0.00 69 1023.4
20180723120647 67 167 0.0 1.0 0.00 0.00 0.00 70 1023.0
20180723115646 67 170 1.0 2.0 0.00 0.00 0.00 70 1023.0
20180723114644 66 105 1.0 2.0 0.00 0.00 0.00 70 1023.0
20180723113642 66 140 1.0 3.0 0.00 0.00 0.00 71 1022.7
20180723112638 65 127 1.0 2.0 0.00 0.00 0.00 71 1022.7
20180723111633 65 140 1.0 3.0 0.00 0.00 0.00 72 1022.7
20180723110626 64 151 1.0 3.0 0.00 0.00 0.00 72 1022.7
20180723105622 64 151 1.0 2.0 0.00 0.00 0.00 72 1022.4
20180723104621 64 134 1.0 3.0 0.00 0.00 0.00 72 1022.4
20180723103619 64 145 1.0 3.0 0.00 0.00 0.00 72 1022.0
20180723102617 64 136 1.0 2.0 0.00 0.00 0.00 72 1022.0
20180723101615 64 177 0.0 1.0 0.00 0.00 0.00 72 1022.0
20180723100614 64 138 0.0 2.0 0.00 0.00 0.00 72 1021.7
20180723095612 64 163 1.0 2.0 0.00 0.00 0.00 72 1021.7
20180723093607 64 165 0.0 0.0 0.00 0.00 0.00 72 1021.3
20180723092605 64 135 0.0 2.0 0.00 0.00 0.00 72 1021.3
20180723091605 64 162 1.0 1.0 0.00 0.00 0.00 72 1021.0
20180723090602 64 152 0.0 1.0 0.00 0.00 0.00 72 1021.0
20180723085601 64 159 1.0 2.0 0.00 0.00 0.00 72 1021.0
20180723084559 64 170 1.0 2.0 0.00 0.00 0.00 72 1020.7
20180723083558 64 182 1.0 2.0 0.00 0.00 0.00 72 1020.7
20180723082556 64 166 1.0 2.0 0.00 0.00 0.00 72 1020.7
20180723081554 64 131 0.0 1.0 0.00 0.00 0.00 72 1020.3
20180723080555 64 135 1.0 2.0 0.00 0.00 0.00 72 1020.3
20180723075551 64 169 0.0 2.0 0.00 0.00 0.00 72 1020.3
20180723074549 64 145 1.0 2.0 0.00 0.00 0.00 72 1020.3
20180723073548 64 141 1.0 3.0 0.00 0.00 0.00 72 1020.3
20180723072546 64 105 1.0 3.0 0.00 0.00 0.00 72 1020.3
20180723071538 64 117 2.0 3.0 0.00 0.00 0.00 72 1020.3
20180723070536 64 135 1.0 3.0 0.00 0.00 0.00 72 1020.3
20180723065535 64 151 1.0 3.0 0.00 0.00 0.00 72 1020.3
20180723064534 64 150 1.0 2.0 0.00 0.00 0.00 72 1020.3
20180723063532 65 124 1.0 2.0 0.00 0.00 0.00 71 1020.3
20180723062531 65 141 1.0 2.0 0.00 0.00 0.00 71 1020.3
20180723061530 65 156 1.0 3.0 0.00 0.00 0.00 71 1020.3
20180723060528 65 138 1.0 3.0 0.00 0.00 0.00 71 1020.7
20180723055526 65 113 1.0 2.0 0.00 0.00 0.00 71 1020.3
20180723054525 65 190 1.0 3.0 0.00 0.00 0.00 71 1020.7
20180723053523 65 131 1.0 1.0 0.00 0.00 0.00 71 1020.7
20180723052521 65 198 1.0 3.0 0.00 0.00 0.00 71 1020.7
20180723051519 65 169 1.0 3.0 0.00 0.00 0.00 71 1020.7
20180723050517 65 144 2.0 3.0 0.00 0.00 0.00 71 1020.7
20180723045516 65 144 1.0 4.0 0.00 0.00 0.00 71 1020.7
20180723044515 65 198 2.0 3.0 0.00 0.00 0.00 71 1020.7
20180723043513 65 151 1.0 3.0 0.00 0.00 0.00 71 1020.7
20180723042511 65 101 1.0 4.0 0.00 0.00 0.00 71 1020.7
20180723041510 65 152 1.0 4.0 0.00 0.00 0.00 71 1020.7
20180723040509 66 138 2.0 4.0 0.00 0.00 0.00 71 1020.7
20180723035507 66 148 2.0 4.0 0.00 0.00 0.00 71 1020.7
20180723034506 66 152 1.0 3.0 0.00 0.00 0.00 71 1021.0
20180723033505 66 143 2.0 3.0 0.00 0.00 0.00 71 1021.0
20180723032503 66 133 2.0 4.0 0.00 0.00 0.00 71 1021.0
20180723031502 66 148 2.0 5.0 0.00 0.00 0.00 71 1021.0
20180723030500 66 143 1.0 4.0 0.00 0.00 0.00 71 1021.0
20180723025459 66 136 2.0 6.0 0.00 0.00 0.00 70 1021.3
20180723024457 66 154 1.0 4.0 0.00 0.00 0.00 70 1021.0
20180723023456 66 161 2.0 4.0 0.00 0.00 0.00 70 1021.0
20180723022455 66 156 3.0 7.0 0.00 0.00 0.00 70 1021.0
20180723021453 66 173 3.0 6.0 0.00 0.00 0.00 70 1021.0
20180723020452 66 159 5.0 7.0 0.00 0.00 0.00 70 1021.0
20180723015450 66 146 3.0 5.0 0.00 0.00 0.00 70 1021.0
20180723014449 66 137 2.0 6.0 0.00 0.00 0.00 70 1021.0
20180723013447 66 148 3.0 6.0 0.00 0.00 0.00 70 1021.0
20180723012446 67 140 3.0 5.0 0.00 0.00 0.00 70 1021.0
20180723011445 67 151 3.0 7.0 0.00 0.00 0.00 70 1021.0
20180723010443 67 149 3.0 5.0 0.00 0.00 0.00 70 1021.0
20180723005442 67 145 4.0 7.0 0.00 0.00 0.00 70 1021.0
20180723004440 67 167 3.0 6.0 0.00 0.00 0.00 70 1021.0
20180723003439 67 156 4.0 7.0 0.00 0.00 0.00 70 1021.0
20180723002438 67 169 3.0 5.0 0.00 0.00 0.00 70 1021.0
20180723001436 67 125 3.0 6.0 0.00 0.00 0.00 69 1021.0
20180723000435 67 150 3.0 8.0 0.00 0.00 0.00 69 1021.0
20180722235348 67 124 4.0 7.0 0.00 0.00 0.00 69 1021.0
20180722234346 67 139 3.0 8.0 0.00 0.00 0.00 69 1021.0
20180722233345 67 151 5.0 8.0 0.00 0.00 0.00 69 1020.7
20180722232344 68 146 4.0 7.0 0.00 0.00 0.00 68 1020.7
20180722231342 68 116 4.0 10.0 0.00 0.00 0.00 68 1020.7
20180722230341 68 156 5.0 11.0 0.00 0.00 0.00 67 1020.7
20180722225339 69 176 6.0 9.0 0.00 0.00 0.00 66 1020.7
20180722224338 69 144 4.0 8.0 0.00 0.00 0.00 66 1020.3
20180722223336 69 166 5.0 9.0 0.00 0.00 0.00 65 1020.3
20180722222334 70 160 6.0 8.0 0.00 0.00 0.00 65 1020.0
20180722221333 70 168 3.0 7.0 0.00 0.00 0.00 65 1020.0
20180722220331 70 137 3.0 10.0 0.00 0.00 0.00 64 1020.0
20180722215329 70 162 4.0 6.0 0.00 0.00 0.00 64 1020.0
20180722214328 71 144 4.0 8.0 0.00 0.00 0.00 63 1019.6
20180722213326 72 173 3.0 6.0 0.00 0.00 0.00 63 1019.6
20180722212324 72 177 5.0 9.0 0.00 0.00 0.00 62 1019.6
20180722211321 72 173 5.0 7.0 0.00 0.00 0.00 61 1019.6
20180722210320 73 163 6.0 9.0 0.00 0.00 0.00 60 1019.6
20180722205319 73 171 4.0 9.0 0.00 0.00 0.00 60 1019.6
20180722204317 74 132 3.0 7.0 0.00 0.00 0.00 59 1019.3
20180722203316 74 128 3.0 7.0 0.00 0.00 0.00 58 1019.3
20180722202315 74 161 5.0 7.0 0.00 0.00 0.00 58 1019.0
20180722201313 74 192 6.0 9.0 0.00 0.00 0.00 57 1019.0
20180722200311 75 160 4.0 7.0 0.00 0.00 0.00 57 1019.0
20180722195310 75 186 7.0 8.0 0.00 0.00 0.00 57 1018.6
20180722194308 75 176 5.0 9.0 0.00 0.00 0.00 57 1018.6
20180722193306 75 170 6.0 10.0 0.00 0.00 0.00 56 1018.6
20180722192305 75 182 5.0 9.0 0.00 0.00 0.00 56 1018.6
20180722191303 75 162 5.0 8.0 0.00 0.00 0.00 56 1018.3
20180722190302 76 141 3.0 9.0 0.00 0.00 0.00 56 1018.3
20180722185300 76 111 4.0 7.0 0.00 0.00 0.00 56 1018.3
20180722183258 76 182 7.0 10.0 0.00 0.00 0.00 56 1018.3
20180722182257 76 133 4.0 7.0 0.00 0.00 0.00 56 1018.3
20180722181256 76 182 5.0 9.0 0.00 0.00 0.00 56 1018.3
20180722180254 76 142 4.0 7.0 0.00 0.00 0.00 56 1018.3
20180722175252 76 196 3.0 9.0 0.00 0.00 0.00 56 1018.6
20180722174251 76 188 4.0 7.0 0.00 0.00 0.00 56 1018.6
20180722173249 76 154 3.0 7.0 0.00 0.00 0.00 56 1018.6
20180722172247 76 163 3.0 6.0 0.00 0.00 0.00 56 1019.0
20180722171243 76 145 6.0 8.0 0.00 0.00 0.00 56 1019.0
20180722170233 76 143 4.0 6.0 0.00 0.00 0.00 56 1019.0
20180722165230 76 146 4.0 9.0 0.00 0.00 0.00 56 1019.3
20180722164228 76 179 5.0 8.0 0.00 0.00 0.00 56 1019.3
20180722163226 76 174 2.0 7.0 0.00 0.00 0.00 56 1019.6
20180722162225 76 144 4.0 6.0 0.00 0.00 0.00 56 1019.6
20180722161224 76 200 3.0 7.0 0.00 0.00 0.00 55 1019.6
20180722160222 77 192 4.0 7.0 0.00 0.00 0.00 55 1020.0
20180722155221 77 121 3.0 7.0 0.00 0.00 0.00 55 1020.0
20180722154220 77 172 3.0 7.0 0.00 0.00 0.00 55 1020.0
20180722153218 77 159 2.0 7.0 0.00 0.00 0.00 55 1020.3
20180722152217 77 223 3.0 7.0 0.00 0.00 0.00 55 1020.3
20180722151215 77 151 4.0 5.0 0.00 0.00 0.00 55 1020.7
20180722150210 77 147 4.0 5.0 0.00 0.00 0.00 55 1021.0
20180722145208 77 183 3.0 8.0 0.00 0.00 0.00 56 1021.0
20180722144207 77 152 3.0 8.0 0.00 0.00 0.00 56 1021.0
20180722143205 76 158 2.0 8.0 0.00 0.00 0.00 57 1021.3
20180722142204 75 165 5.0 8.0 0.00 0.00 0.00 58 1021.3
20180722141202 75 163 2.0 6.0 0.00 0.00 0.00 59 1021.3
20180722140201 74 142 4.0 8.0 0.00 0.00 0.00 60 1021.7
20180722135159 73 173 4.0 7.0 0.00 0.00 0.00 61 1021.7
20180722134158 73 141 4.0 7.0 0.00 0.00 0.00 62 1021.7